[[{"header":{"parameterUnit":"m.s-1","parameterCategory":1,"la1":30.2991,"la2":30.254,"lo1":-89.0895,"lo2":-89.0444,"dy":0.0017,"dx":0.0017,"nx":28,"ny":28,"refTime":"2025-05-15T09:00:00:Z","depth":0,"parameterNumber":2,"parameterNumberName":"U-component_of_WINDS"},"data":[0,0,0,0,0,0,0,0,0,0,0,0,0,0,0,0,0,0,0,0,0,0,0,0,0,0,0,0,0,0,0,0,0,0,0,0,0,0,0,0,0,0,0,0,0,0,0,0,0,0,0,0,0,0,0,0,0,0,-1.5142,-1.5141,0,-1.5095,-1.5094,-1.5094,-1.5089,-1.5089,-1.509,-1.509,-1.5036,-1.5035,-1.5033,0,0,0,0,0,0,0,0,0,0,0,0,0,-1.5223,-1.5221,-1.5142,-1.5141,-1.5141,-1.5095,-1.5094,-1.5093,-1.5089,-1.5089,-1.509,-1.5091,-1.5037,-1.5035,-1.5032,0,0,0,0,0,0,0,0,0,0,0,0,0,-1.5183,-1.5221,-1.5142,-1.5133,-1.5132,-1.5095,-1.5094,-1.5093,-1.5089,-1.5089,-1.509,-1.5091,-1.5038,-1.5035,-1.5032,-1.4999,0,0,-1.5023,-1.5022,0,0,0,0,0,0,0,0,-1.5185,-1.518,-1.5135,-1.5134,-1.5132,-1.5099,-1.5103,-1.5061,-1.5088,-1.5105,-1.509,-1.5091,-1.5056,-1.5052,-1.5041,-1.4997,-1.4994,-1.5023,-1.5021,-1.502,-1.5019,0,0,0,0,0,0,0,-1.5188,-1.5182,-1.5123,-1.5134,-1.5132,-1.513,-1.5125,-1.5095,-1.5076,-1.5103,-1.5103,-1.5098,-1.5055,-1.5044,-1.504,-1.4994,-1.5023,-1.5021,-1.5019,-1.5018,-1.4919,-1.4918,0,0,0,0,0,0,-1.5193,-1.5184,-1.5124,-1.5122,-1.5161,-1.5128,-1.5122,-1.5108,-1.5077,-1.5073,-1.5097,-1.5098,-1.5048,-1.5043,-1.5038,-1.4996,-1.502,-1.5018,-1.5016,-1.492,-1.4919,-1.4918,0,0,0,0,0,0,-1.5195,-1.5188,-1.5126,-1.5153,-1.5145,-1.5125,-1.511,-1.5107,-1.5096,-1.5072,-1.5068,-1.5089,-1.5049,-1.5042,-1.5009,-1.4995,-1.5016,-1.5014,-1.4921,-1.492,-1.4918,-1.4914,0,0,0,0,0,0,-1.5197,-1.5188,-1.5177,-1.5153,-1.5143,-1.51,-1.5109,-1.5106,-1.5091,-1.5092,-1.5064,-1.506,-1.5049,-1.5013,-1.5006,-1.4991,-1.5011,-1.4922,-1.492,-1.4919,-1.4915,-1.4913,-1.4911,0,0,0,0,0,-1.52,-1.5177,-1.5176,-1.5169,-1.5129,-1.5099,-1.5094,-1.5083,-1.509,-1.5078,-1.5063,-1.5061,-1.4998,-1.501,-1.5002,-1.4986,-1.4923,-1.4921,-1.4919,-1.4916,-1.4913,-1.4911,0,0,0,0,0,0,-1.5198,-1.5173,-1.5173,-1.5141,-1.5123,-1.5099,-1.5082,-1.508,-1.5058,-1.5059,-1.5045,-1.5039,-1.5006,-1.4993,-1.5007,-1.4952,-1.4961,-1.4957,-1.4962,-1.4958,-1.4956,-1.4959,-1.5009,0,0,0,0,0,-1.5194,-1.5174,-1.5153,-1.5127,-1.5118,-1.5102,-1.5088,-1.5082,-1.5062,-1.5053,-1.5036,-1.5014,-1.499,-1.4973,-1.495,-1.4914,-1.4907,-1.4899,-1.4896,-1.4894,-1.4891,-1.487,-1.4865,-1.4911,-1.4911,-1.4911,0,0,-1.5185,-1.5169,-1.5157,-1.5126,-1.5111,-1.5088,-1.5095,-1.5071,-1.5054,-1.5049,-1.5017,-1.5004,-1.4979,-1.4944,-1.4928,-1.4932,-1.4877,-1.4892,-1.489,-1.4888,-1.4867,-1.4863,-1.4859,-1.491,-1.491,-1.491,0,0,-1.5157,-1.5144,-1.5121,-1.5106,-1.5083,-1.5073,-1.5068,-1.5044,-1.5035,-1.5004,-1.5,-1.4978,-1.4936,-1.4918,-1.4904,-1.487,-1.4867,-1.4863,-1.4849,-1.4829,-1.4825,-1.4822,-1.4808,-1.4804,-1.4859,-1.4859,-1.4859,0,-1.5148,-1.5116,-1.5108,-1.5085,-1.507,-1.5067,-1.5042,-1.5028,-1.4998,-1.4987,-1.4993,-1.494,-1.4923,-1.4884,-1.4876,-1.4865,-1.4856,-1.4865,-1.4827,-1.4823,-1.482,-1.4807,-1.4802,-1.4859,-1.4859,-1.4859,-1.4859,0,-1.5106,-1.5084,-1.5067,-1.504,-1.5024,-1.5,-1.4987,-1.4971,-1.4967,-1.4955,-1.4923,-1.4902,-1.4874,-1.4865,-1.4859,-1.4824,-1.4827,-1.483,-1.4838,-1.4815,-1.4803,-1.4798,-1.4858,-1.4858,-1.4859,-1.4859,0,0,-1.5074,-1.5044,-1.5038,-1.5026,-1.5001,-1.4983,-1.4958,-1.4932,-1.4918,-1.4898,-1.4876,-1.4841,-1.4843,-1.4827,-1.4819,-1.4802,-1.4775,-1.4806,-1.4805,-1.48,-1.4734,-1.4731,-1.4725,-1.4773,-1.4772,-1.4771,-1.4735,0,-1.5043,-1.5,-1.4992,-1.4954,-1.4933,-1.493,-1.4908,-1.4889,-1.4878,-1.4857,-1.4844,-1.4819,-1.4825,-1.4815,-1.4797,-1.4782,-1.4761,-1.4784,-1.475,-1.4749,-1.4755,-1.4719,-1.4716,-1.4683,-1.4731,-1.473,-1.4729,0,-1.5,-1.498,-1.4941,-1.4919,-1.491,-1.489,-1.4866,-1.4846,-1.4825,-1.4818,-1.48,-1.4795,-1.4767,-1.4778,-1.4739,-1.4755,-1.474,-1.4731,-1.4729,-1.4724,-1.4737,-1.4712,-1.4672,-1.4667,-1.4722,-1.4722,-1.4723,0,-1.4979,-1.4943,-1.4914,-1.4904,-1.4878,-1.4865,-1.4853,-1.4832,-1.4817,-1.4795,-1.4785,-1.476,-1.4745,-1.4725,-1.4712,-1.4722,-1.4673,-1.4684,-1.4665,-1.4665,-1.4653,-1.4654,-1.461,-1.4647,-1.4647,-1.4647,-1.4647,0,-1.4944,-1.4919,-1.4905,-1.4887,-1.4859,-1.485,-1.4822,-1.481,-1.4792,-1.4771,-1.4766,-1.4746,-1.4731,-1.4708,-1.4698,-1.4666,-1.466,-1.4652,-1.4649,-1.4652,-1.4652,-1.4641,-1.4642,-1.4646,-1.4646,-1.4646,-1.4646,0,-1.4915,-1.4905,-1.4873,-1.4852,-1.4846,-1.4826,-1.4807,-1.4789,-1.4778,-1.4751,-1.4744,-1.4727,-1.47,-1.4686,-1.4651,-1.4644,-1.4608,-1.4607,-1.4616,-1.4614,-1.4596,-1.4597,-1.4541,-1.4532,-1.4577,-1.4576,-1.4576,0,-1.4893,-1.4874,-1.4851,-1.4838,-1.4826,-1.4804,-1.4789,-1.4779,-1.4763,-1.4738,-1.4722,-1.4695,-1.4673,-1.463,-1.4612,-1.4586,-1.4583,-1.4566,-1.4579,-1.4582,-1.4581,-1.4582,-1.4579,-1.4563,-1.4562,-1.4562,-1.4562,0,-1.4854,-1.485,-1.4829,-1.4807,-1.4789,-1.4771,-1.4752,-1.4741,-1.4727,-1.4709,-1.4683,-1.4666,-1.4632,-1.4604,-1.4576,-1.4562,-1.4559,-1.4558,-1.4552,-1.4553,-1.4558,-1.4554,-1.4607,-1.4559,-1.4559,-1.4559,-1.4559,-1.456,-1.4826,-1.4809,-1.4791,-1.4768,-1.4753,-1.4736,-1.4718,-1.4706,-1.4684,-1.4656,-1.4651,-1.4623,-1.4601,-1.4564,-1.4549,-1.4525,-1.4528,-1.452,-1.4518,-1.4515,-1.4514,-1.4564,-1.452,-1.452,-1.452,-1.452,-1.452,0,-1.4786,-1.4774,-1.4753,-1.4728,-1.471,-1.4711,-1.469,-1.4674,-1.465,-1.4631,-1.4609,-1.4578,-1.4552,-1.4533,-1.4506,-1.449,-1.4488,-1.4483,-1.4483,-1.448,-1.4513,-1.452,-1.4485,-1.4485,-1.4485,-1.4485,-1.4485,-1.4485,-1.4762,-1.4734,-1.4727,-1.469,-1.4678,-1.4651,-1.4639,-1.4623,-1.4608,-1.4574,-1.4553,-1.4541,-1.4522,-1.4493,-1.4469,-1.4464,-1.4453,-1.4448,-1.4443,-1.4474,-1.4477,-1.4481,-1.4488,-1.4446,-1.4446,-1.4411,-1.4411,-1.4411]},{"header":{"parameterUnit":"m.s-1","parameterCategory":1,"la1":30.2991,"la2":30.254,"lo1":-89.0895,"lo2":-89.0444,"dy":0.0017,"dx":0.0017,"nx":28,"ny":28,"refTime":"2025-05-15T09:00:00:Z","depth":0,"parameterNumber":3,"parameterNumberName":"V-component_of_WINDS"},"data":[0,0,0,0,0,0,0,0,0,0,0,0,0,0,0,0,0,0,0,0,0,0,0,0,0,0,0,0,0,0,0,0,0,0,0,0,0,0,0,0,0,0,0,0,0,0,0,0,0,0,0,0,0,0,0,0,0,0,5.7798,5.78,0,5.7981,5.7983,5.7986,5.7993,5.7991,5.7989,5.7987,5.817,5.8177,5.8184,0,0,0,0,0,0,0,0,0,0,0,0,0,5.745,5.7456,5.7797,5.78,5.7802,5.7981,5.7984,5.7986,5.7993,5.7991,5.7988,5.7986,5.8168,5.8176,5.8184,0,0,0,0,0,0,0,0,0,0,0,0,0,5.7614,5.7458,5.7797,5.7827,5.7832,5.7981,5.7984,5.7987,5.7994,5.7991,5.7987,5.7984,5.8165,5.8175,5.8185,5.8315,0,0,5.8217,5.8222,0,0,0,0,0,0,0,0,5.7605,5.7627,5.7821,5.7826,5.7831,5.7961,5.7928,5.8097,5.7995,5.7932,5.7986,5.7983,5.8103,5.8118,5.816,5.8323,5.8331,5.8218,5.8224,5.8229,5.8232,0,0,0,0,0,0,0,5.7593,5.7619,5.787,5.7823,5.783,5.7831,5.7851,5.796,5.8033,5.7937,5.7938,5.796,5.8105,5.815,5.8164,5.8334,5.8218,5.8227,5.8233,5.8237,5.8615,5.8619,0,0,0,0,0,0,5.7576,5.7609,5.7864,5.7876,5.7708,5.784,5.7862,5.7922,5.8032,5.8046,5.7963,5.796,5.8133,5.8152,5.817,5.8331,5.8229,5.8238,5.8244,5.8612,5.8616,5.862,0,0,0,0,0,0,5.7569,5.7599,5.7857,5.7743,5.7776,5.7849,5.7917,5.7928,5.7973,5.8052,5.8064,5.7995,5.8132,5.8156,5.828,5.8338,5.8243,5.8252,5.8607,5.8613,5.8618,5.8652,0,0,0,0,0,0,5.7559,5.7596,5.7647,5.7744,5.7782,5.7964,5.7921,5.7934,5.7991,5.7989,5.8085,5.8098,5.8131,5.8264,5.829,5.835,5.8261,5.8602,5.861,5.8617,5.8646,5.8658,5.8669,0,0,0,0,0,5.7546,5.7647,5.7649,5.768,5.7847,5.7967,5.7989,5.8026,5.7995,5.8047,5.8098,5.8095,5.8327,5.8277,5.8306,5.837,5.8599,5.8608,5.8616,5.8641,5.8656,5.8669,0,0,0,0,0,0,5.7553,5.7661,5.7664,5.78,5.7875,5.7968,5.8034,5.804,5.8124,5.8118,5.8159,5.8181,5.8304,5.8349,5.8291,5.8502,5.8459,5.8474,5.8468,5.8483,5.8494,5.8481,5.8269,0,0,0,0,0,5.7571,5.7661,5.7749,5.786,5.7898,5.796,5.8013,5.8036,5.8114,5.8146,5.8206,5.8281,5.8371,5.8429,5.8516,5.8653,5.8674,5.8711,5.8722,5.8731,5.8744,5.8821,5.8839,5.8649,5.8649,5.8648,0,0,5.7607,5.7677,5.7731,5.7864,5.7924,5.8017,5.7986,5.8084,5.8153,5.816,5.8282,5.8329,5.8415,5.8547,5.8607,5.8588,5.8801,5.8742,5.8749,5.8757,5.8832,5.885,5.8866,5.8654,5.8653,5.8652,0,0,5.7721,5.7783,5.7883,5.7946,5.8039,5.8079,5.8104,5.8198,5.823,5.8353,5.8361,5.8442,5.8596,5.8658,5.871,5.885,5.8851,5.8877,5.8936,5.9011,5.9026,5.904,5.9091,5.9109,5.8889,5.8889,5.8889,0,5.7754,5.7895,5.7934,5.8033,5.8092,5.8105,5.8207,5.8265,5.8381,5.8421,5.8397,5.8593,5.8652,5.8799,5.8834,5.8874,5.8904,5.8867,5.9021,5.9035,5.9048,5.9098,5.9117,5.8892,5.8892,5.8891,5.8891,0,5.7932,5.8029,5.8099,5.8214,5.828,5.838,5.8434,5.8496,5.8513,5.8556,5.8682,5.8753,5.8856,5.8893,5.8909,5.9043,5.9028,5.9013,5.8971,5.9069,5.9116,5.9135,5.8896,5.8895,5.8894,5.8893,0,0,5.8055,5.8192,5.8217,5.827,5.8375,5.845,5.8551,5.8654,5.8707,5.8786,5.8873,5.9004,5.8991,5.905,5.9073,5.9139,5.9248,5.9116,5.9118,5.9139,5.9402,5.9414,5.9435,5.9249,5.9253,5.9256,5.9395,0,5.8182,5.8363,5.8402,5.8559,5.865,5.8665,5.8753,5.8826,5.8869,5.8952,5.8999,5.9092,5.9067,5.9103,5.9169,5.922,5.9301,5.9211,5.9329,5.9333,5.9309,5.946,5.9473,5.9601,5.9414,5.9417,5.9419,0,5.8354,5.8441,5.8607,5.8702,5.8742,5.882,5.8919,5.8998,5.9082,5.9108,5.9176,5.9193,5.9298,5.925,5.9397,5.9334,5.9385,5.9418,5.9424,5.9437,5.9383,5.9479,5.9642,5.9662,5.9448,5.9446,5.9444,0,5.8429,5.8587,5.8708,5.8753,5.8866,5.8921,5.8971,5.9051,5.9111,5.9197,5.9236,5.9332,5.9385,5.9458,5.9501,5.9462,5.9644,5.96,5.967,5.9669,5.9708,5.9705,5.9884,5.9739,5.9738,5.9738,5.9737,0,5.8567,5.8669,5.8744,5.8818,5.8932,5.8976,5.9088,5.9137,5.9209,5.9293,5.931,5.9388,5.9439,5.9524,5.9558,5.9675,5.9698,5.9722,5.973,5.9722,5.9719,5.9756,5.9749,5.9743,5.9742,5.9741,5.974,0,5.8671,5.8725,5.8858,5.8955,5.8982,5.9062,5.9145,5.9218,5.9261,5.9368,5.9395,5.9463,5.9565,5.9615,5.974,5.9763,5.9896,5.9897,5.9868,5.9872,5.9939,5.9933,6.0149,6.0181,6.0013,6.0015,6.0016,0,5.8756,5.8835,5.8942,5.9,5.9052,5.9145,5.9207,5.9253,5.9317,5.942,5.9481,5.9583,5.9668,5.983,5.989,5.9986,5.9991,6.006,6.0006,5.9995,5.9994,5.999,5.9999,6.007,6.0072,6.0073,6.0074,0,5.8903,5.8926,5.9016,5.9116,5.919,5.9271,5.935,5.9396,5.9455,5.9526,5.9631,5.9697,5.9827,5.9929,6.003,6.008,6.0088,6.0091,6.0113,6.0105,6.0086,6.0099,5.9896,6.0086,6.0085,6.0084,6.0083,6.0083,5.9001,5.9073,5.916,5.926,5.9325,5.9399,5.9473,5.9527,5.9616,5.9727,5.9748,5.986,5.9943,6.0081,6.0134,6.0222,6.0206,6.0237,6.0245,6.0253,6.0257,6.0072,6.024,6.024,6.024,6.0239,6.0239,0,5.915,5.9207,5.9299,5.941,5.9489,5.9491,5.9579,5.9645,5.9744,5.9822,5.9906,6.0028,6.0127,6.0196,6.0298,6.0355,6.0361,6.038,6.0377,6.0389,6.0264,6.0236,6.0374,6.0374,6.0374,6.0374,6.0373,6.0373,5.9237,5.9359,5.9393,5.9548,5.9604,5.9716,5.9767,5.9835,5.9898,6.0034,6.0118,6.0163,6.0238,6.0345,6.0437,6.0454,6.0491,6.0511,6.0528,6.0411,6.0397,6.0384,6.0358,6.0518,6.0518,6.0646,6.0647,6.0648]}]]